• In Kazakhstan
  • List of Countries
  • For 7 days
  • Water Temperature
  • Satellite Maps
  • Weather Map
  • News
  • Weather Widgets
  • user-avatar
    Login

    Hourly Weather Naftalan

    Today, 23 October, Monday

    Time Temperature Precipitation Wind Pressure Humidity
    00:00 +18°C° 0 mm 3 mps 760 mmHg 56%
    01:00 +18°C° 0 mm 4 mps 760 mmHg 49%
    02:00 +18°C° 0 mm 4 mps 760 mmHg 42%
    03:00 +17°C° 0 mm 5 mps 760 mmHg 37%
    04:00 +16°C° 0 mm 5 mps 760 mmHg 35%
    05:00 +16°C° 0 mm 6 mps 761 mmHg 33%
    06:00 +16°C° 0 mm 7 mps 761 mmHg 32%
    07:00 +17°C° 0 mm 7 mps 762 mmHg 31%
    08:00 +20°C° 0 mm 7 mps 762 mmHg 31%
    09:00 +22°C° 0 mm 7 mps 763 mmHg 31%
    10:00 +22°C° 0 mm 7 mps 764 mmHg 35%
    11:00 +23°C° 0 mm 7 mps 764 mmHg 38%
    12:00 +23°C° 0 mm 7 mps 765 mmHg 42%
    13:00 +22°C° 0 mm 7 mps 765 mmHg 48%
    14:00 +22°C° 0 mm 8 mps 765 mmHg 54%
    15:00 +21°C° 0 mm 8 mps 766 mmHg 60%
    16:00 +20°C° 0 mm 7 mps 766 mmHg 65%
    17:00 +18°C° 0 mm 7 mps 767 mmHg 70%
    18:00 +17°C° 0 mm 7 mps 768 mmHg 74%
    19:00 +17°C° 0.1 mm 7 mps 768 mmHg 75%
    20:00 +17°C° 0.1 mm 7 mps 768 mmHg 76%
    21:00 +17°C° 0.1 mm 7 mps 768 mmHg 77%
    22:00 +17°C° 0.1 mm 6 mps 768 mmHg 77%
    23:00 +17°C° 0.1 mm 6 mps 768 mmHg 78%

    Tomorrow, 24 October, Tuesday

    Time Temperature Precipitation Wind Pressure Humidity
    00:00 +17°C° 0.1 mm 6 mps 768 mmHg 79%
    01:00 +17°C° 0.1 mm 6 mps 767 mmHg 79%
    02:00 +17°C° 0.1 mm 6 mps 767 mmHg 80%
    03:00 +17°C° 0.1 mm 6 mps 767 mmHg 80%
    04:00 +17°C° 0.1 mm 5 mps 767 mmHg 81%
    05:00 +17°C° 0.1 mm 5 mps 767 mmHg 81%
    06:00 +18°C° 0.1 mm 4 mps 767 mmHg 82%
    07:00 +18°C° 0.1 mm 4 mps 767 mmHg 80%
    08:00 +18°C° 0.1 mm 4 mps 767 mmHg 79%
    09:00 +19°C° 0.1 mm 3 mps 767 mmHg 78%
    10:00 +19°C° 0.1 mm 3 mps 767 mmHg 75%
    11:00 +20°C° 0.1 mm 3 mps 766 mmHg 73%
    12:00 +21°C° 0.1 mm 3 mps 766 mmHg 70%
    13:00 +21°C° 0 mm 2 mps 766 mmHg 69%
    14:00 +21°C° 0 mm 2 mps 766 mmHg 67%
    15:00 +21°C° 0 mm 2 mps 765 mmHg 66%
    16:00 +21°C° 0 mm 2 mps 766 mmHg 71%
    17:00 +20°C° 0 mm 2 mps 766 mmHg 76%
    18:00 +19°C° 0 mm 2 mps 766 mmHg 81%
    19:00 +19°C° 0 mm 2 mps 766 mmHg 83%
    20:00 +18°C° 0 mm 2 mps 766 mmHg 86%
    21:00 +18°C° 0 mm 2 mps 766 mmHg 89%
    22:00 +19°C° 0 mm 1 mps 766 mmHg 90%
    23:00 +18°C° 0 mm 1 mps 766 mmHg 91%

    Day after tomorrow, 25 October, Wednesday

    Time Temperature Precipitation Wind Pressure Humidity
    00:00 +18°C° 0 mm 1 mps 767 mmHg 92%
    01:00 +18°C° 0 mm 1 mps 766 mmHg 91%
    02:00 +18°C° 0 mm 1 mps 766 mmHg 91%
    03:00 +18°C° 0 mm 1 mps 766 mmHg 91%
    04:00 +18°C° 0 mm 1 mps 766 mmHg 91%
    05:00 +18°C° 0 mm 1 mps 767 mmHg 91%
    06:00 +16°C° 0 mm 1 mps 767 mmHg 91%
    07:00 +19°C° 0 mm 1 mps 767 mmHg 86%
    08:00 +20°C° 0 mm 1 mps 767 mmHg 80%
    09:00 +21°C° 0 mm 1 mps 767 mmHg 75%
    10:00 +22°C° 0 mm 1 mps 767 mmHg 71%
    11:00 +23°C° 0 mm 1 mps 767 mmHg 66%
    12:00 +24°C° 0 mm 1 mps 766 mmHg 61%
    13:00 +24°C° 0 mm 2 mps 766 mmHg 61%
    14:00 +24°C° 0 mm 2 mps 765 mmHg 60%
    15:00 +25°C° 0 mm 3 mps 765 mmHg 59%
    16:00 +22°C° 0 mm 3 mps 765 mmHg 66%
    17:00 +21°C° 0 mm 3 mps 765 mmHg 74%
    18:00 +19°C° 0 mm 3 mps 765 mmHg 81%
    19:00 +19°C° 0 mm 3 mps 765 mmHg 82%
    20:00 +19°C° 0 mm 2 mps 765 mmHg 82%
    21:00 +18°C° 0 mm 2 mps 765 mmHg 83%
    22:00 +18°C° 0 mm 2 mps 765 mmHg 84%
    23:00 +19°C° 0 mm 1 mps 765 mmHg 86%

    26 October, Thursday

    Time Temperature Precipitation Wind Pressure Humidity
    00:00 +19°C° 0 mm 1 mps 764 mmHg 87%
    01:00 +19°C° 0 mm 1 mps 764 mmHg 86%
    02:00 +17°C° 0 mm 2 mps 764 mmHg 85%
    03:00 +17°C° 0 mm 2 mps 763 mmHg 85%
    04:00 +17°C° 0 mm 2 mps 763 mmHg 83%
    05:00 +17°C° 0 mm 2 mps 763 mmHg 80%
    06:00 +17°C° 0 mm 3 mps 763 mmHg 78%
    07:00 +19°C° 0 mm 3 mps 763 mmHg 66%
    08:00 +21°C° 0 mm 3 mps 763 mmHg 54%
    09:00 +23°C° 0 mm 4 mps 763 mmHg 42%
    10:00 +25°C° 0 mm 4 mps 762 mmHg 36%
    11:00 +27°C° 0 mm 4 mps 762 mmHg 30%
    12:00 +29°C° 0 mm 4 mps 761 mmHg 24%
    13:00 +29°C° 0 mm 4 mps 761 mmHg 24%
    14:00 +29°C° 0 mm 5 mps 761 mmHg 24%
    15:00 +29°C° 0 mm 5 mps 761 mmHg 24%
    16:00 +26°C° 0 mm 7 mps 762 mmHg 38%
    17:00 +22°C° 0 mm 8 mps 763 mmHg 51%
    18:00 +18°C° 0 mm 10 mps 763 mmHg 64%
    19:00 +18°C° 0 mm 10 mps 764 mmHg 65%
    20:00 +18°C° 0 mm 10 mps 765 mmHg 65%
    21:00 +17°C° 0 mm 9 mps 765 mmHg 66%
    22:00 +17°C° 0 mm 9 mps 765 mmHg 68%
    23:00 +17°C° 0 mm 8 mps 766 mmHg 70%

    27 October, Friday

    Time Temperature Precipitation Wind Pressure Humidity
    00:00 +16°C° 0 mm 8 mps 766 mmHg 73%
    01:00 +16°C° 0 mm 7 mps 766 mmHg 74%
    02:00 +15°C° 0 mm 6 mps 766 mmHg 75%
    03:00 +15°C° 0 mm 6 mps 766 mmHg 77%
    04:00 +15°C° 0 mm 5 mps 767 mmHg 78%
    05:00 +15°C° 0 mm 5 mps 767 mmHg 79%
    06:00 +14°C° 0 mm 5 mps 767 mmHg 80%
    07:00 +15°C° 0 mm 5 mps 768 mmHg 76%
    08:00 +16°C° 0 mm 5 mps 768 mmHg 72%
    09:00 +17°C° 0 mm 6 mps 769 mmHg 67%
    10:00 +17°C° 0 mm 5 mps 768 mmHg 66%
    11:00 +19°C° 0 mm 5 mps 768 mmHg 64%
    12:00 +19°C° 0 mm 5 mps 768 mmHg 63%
    13:00 +19°C° 0 mm 5 mps 767 mmHg 63%
    14:00 +19°C° 0 mm 5 mps 767 mmHg 64%
    15:00 +19°C° 0 mm 5 mps 767 mmHg 64%
    16:00 +17°C° 0 mm 5 mps 767 mmHg 67%
    17:00 +16°C° 0 mm 5 mps 767 mmHg 70%
    18:00 +16°C° 0 mm 5 mps 767 mmHg 73%
    19:00 +17°C° 0 mm 4 mps 767 mmHg 73%
    20:00 +17°C° 0 mm 4 mps 767 mmHg 74%
    21:00 +15°C° 0 mm 4 mps 767 mmHg 75%
    22:00 +15°C° 0 mm 4 mps 766 mmHg 76%
    23:00 +16°C° 0 mm 3 mps 766 mmHg 77%

    28 October, Saturday

    Time Temperature Precipitation Wind Pressure Humidity
    00:00 +16°C° 0 mm 3 mps 765 mmHg 78%
    01:00 +16°C° 0 mm 3 mps 765 mmHg 80%
    02:00 +16°C° 0 mm 3 mps 765 mmHg 82%
    03:00 +16°C° 0 mm 2 mps 764 mmHg 83%
    04:00 +16°C° 0 mm 2 mps 764 mmHg 83%
    05:00 +16°C° 0 mm 2 mps 764 mmHg 82%
    06:00 +16°C° 0 mm 2 mps 764 mmHg 82%
    07:00 +16°C° 0 mm 2 mps 764 mmHg 78%
    08:00 +17°C° 0 mm 2 mps 764 mmHg 74%
    09:00 +18°C° 0 mm 3 mps 763 mmHg 70%
    10:00 +19°C° 0 mm 3 mps 763 mmHg 65%
    11:00 +20°C° 0 mm 3 mps 762 mmHg 61%
    12:00 +21°C° 0 mm 3 mps 761 mmHg 56%
    13:00 +22°C° 0 mm 3 mps 761 mmHg 52%
    14:00 +22°C° 0 mm 3 mps 760 mmHg 49%
    15:00 +24°C° 0 mm 3 mps 760 mmHg 46%
    16:00 +21°C° 0 mm 3 mps 760 mmHg 52%
    17:00 +20°C° 0 mm 3 mps 760 mmHg 58%
    18:00 +18°C° 0 mm 3 mps 760 mmHg 64%
    19:00 +18°C° 0 mm 3 mps 760 mmHg 67%
    20:00 +18°C° 0 mm 3 mps 760 mmHg 70%
    21:00 +17°C° 0 mm 3 mps 759 mmHg 73%
    22:00 +17°C° 0 mm 3 mps 759 mmHg 75%
    23:00 +17°C° 0 mm 2 mps 758 mmHg 76%

    29 October, Sunday

    Time Temperature Precipitation Wind Pressure Humidity
    00:00 +17°C° 0 mm 2 mps 758 mmHg 78%
    01:00 +18°C° 0 mm 3 mps 758 mmHg 74%
    02:00 +18°C° 0 mm 3 mps 758 mmHg 70%
    03:00 +18°C° 0 mm 4 mps 758 mmHg 66%
    04:00 +18°C° 0 mm 4 mps 758 mmHg 58%
    05:00 +18°C° 0 mm 4 mps 758 mmHg 50%
    06:00 +17°C° 0 mm 5 mps 758 mmHg 42%
    07:00 +20°C° 0 mm 4 mps 758 mmHg 38%
    08:00 +21°C° 0 mm 4 mps 758 mmHg 34%
    09:00 +22°C° 0 mm 3 mps 758 mmHg 30%
    10:00 +25°C° 0 mm 3 mps 757 mmHg 29%
    11:00 +27°C° 0 mm 3 mps 757 mmHg 27%
    12:00 +29°C° 0 mm 4 mps 757 mmHg 25%
    13:00 +29°C° 0 mm 3 mps 756 mmHg 24%
    14:00 +29°C° 0 mm 3 mps 756 mmHg 24%
    15:00 +29°C° 0 mm 3 mps 756 mmHg 23%
    16:00 +27°C° 0 mm 2 mps 756 mmHg 26%
    17:00 +25°C° 0 mm 2 mps 756 mmHg 29%
    18:00 +23°C° 0 mm 1 mps 756 mmHg 32%
    19:00 +23°C° 0 mm 2 mps 756 mmHg 33%
    20:00 +21°C° 0 mm 2 mps 757 mmHg 34%
    21:00 +21°C° 0 mm 2 mps 757 mmHg 35%
    22:00 +20°C° 0 mm 2 mps 756 mmHg 36%
    23:00 +21°C° 0 mm 1 mps 756 mmHg 38%
    Show more